Volver al catálogo

COSMOS 2251 DEB

ActivoLEO
NORAD 34611·DEBRIS·🇷🇺 Russia

Lanzado Jun 16, 1993 desde Plesetsk Cosmodrome

Loading…

Próximos Pases (próximas 24 horas)

TLE

ActualizadoSource: Space-Track

Época: Sep 14, 2026, 21:33 UTC

1 34611U 93036WG  26257.89804498  .00003959  00000-0  60562-3 0  9996
2 34611  74.0501 284.3489 0024072 258.9893 159.7756 14.73901857924540

Sigue COSMOS 2251 DEB en tiempo real con AllMySat

Download on the App Store